Garrison, ND

4:29 PM CDT on August 24, 2016 (GMT -0500)
Garrison

Weather History for KN60 - October, 2013

Change the Weather History Date:

Tuesday, October 22, 2013

  Actual Average Record
Temperature  
Mean Temperature 33 °F -  
Max Temperature 35 °F 49 °F 71 °F (1998)
Min Temperature 30 °F 29 °F 9 °F (1996)
Degree Days  
Heating Degree Days 32    
Month to date heating degree days 346  
Moisture  
Dew Point 30 °F    
Average Humidity 88    
Maximum Humidity 100    
Minimum Humidity 75    
Precipitation  
Precipitation 0.02 in - - ()
Month to date precipitation 3.24  
Year to date precipitation 28.80  
Sea Level Pressure  
Sea Level Pressure 30.11 in    
Wind  
Wind Speed 5 mph (NNE)    
Max Wind Speed 12 mph    
Max Gust Speed 14 mph    
Averages and records for this station are not official NWS values.
T = Trace of Precipitation, MM = Missing Value Source: NWS Daily Summary

Daily Weather History Graph

Daily Weather History Graph

Search for Another Location

Airport or City:

Trip Planner

Search our weather history database for the weather conditions in past years. The results will help you decide how hot, cold, wet, or windy it might be!

Date:

Astronomy

Oct. 22, 2013 Rise Set
Actual Time 8:15 AM CDT 6:44 PM CDT
Civil Twilight 7:43 AM CDT 7:15 PM CDT
Nautical Twilight 7:07 AM CDT 7:51 PM CDT
Astronomical Twilight 6:32 AM CDT 8:27 PM CDT
Moon 9:14 PM CDT (10/22) 11:56 AM CDT (10/22)
Length of Visible Light 11h 31m
Length of Day
10h 28m
Waning Gibbous, 86% of the Moon is Illuminated
Oct 22
Waning Gibbous
Oct 26
Last Quarter
Nov 3
New
Nov 9
First Quarter
Nov 17
Full

Hourly Weather History & Observations

Time (CDT) Temp. Windchill Dew Point Humidity Pressure Visibility Wind Dir Wind Speed Gust Speed Precip Events Conditions
12:52 AM 32.0 °F 26.4 °F 32.0 °F 100% 30.01 in - ENE 5.8 mph - N/A   Unknown
1:52 AM 30.0 °F 24.1 °F 30.0 °F 100% 30.04 in - East 5.8 mph - 0.03 in   Unknown
2:52 AM 30.0 °F 21.7 °F 28.9 °F 96% 30.04 in - East 9.2 mph - N/A   Unknown
3:52 AM 30.0 °F 23.2 °F 28.9 °F 96% 30.04 in - East 6.9 mph - N/A   Unknown
4:52 AM 30.9 °F 25.2 °F 28.9 °F 92% 30.05 in - East 5.8 mph - N/A   Unknown
5:52 AM 30.9 °F - 28.9 °F 92% 30.07 in - Calm Calm - N/A   Unknown
6:52 AM 30.0 °F 25.2 °F 30.0 °F 100% 30.09 in - NE 4.6 mph - N/A   Unknown
7:52 AM 30.0 °F 24.1 °F 28.9 °F 96% 30.11 in - NE 5.8 mph - N/A   Unknown
8:52 AM 30.0 °F 26.5 °F 28.9 °F 96% 30.13 in - NE 3.5 mph - N/A   Unknown
9:52 AM 30.9 °F 25.2 °F 30.0 °F 96% 30.16 in - NNE 5.8 mph - N/A   Unknown
10:52 AM 30.9 °F 26.2 °F 28.9 °F 92% 30.17 in - North 4.6 mph - N/A   Unknown
11:52 AM 32.0 °F 25.6 °F 28.0 °F 85% 30.17 in - NNE 6.9 mph - N/A   Unknown
12:52 PM 33.1 °F - 28.9 °F 85% 30.17 in - Calm Calm - N/A   Unknown
1:52 PM 34.0 °F 28.8 °F 30.0 °F 85% 30.17 in - NW 5.8 mph - N/A   Unknown
2:52 PM 35.1 °F 31.0 °F 28.9 °F 78% 30.14 in - NNW 4.6 mph - N/A   Unknown
3:52 PM 35.1 °F 29.3 °F 28.9 °F 78% 30.15 in - NW 6.9 mph - N/A   Unknown
4:52 PM 35.1 °F 29.3 °F 28.9 °F 78% 30.15 in - WNW 6.9 mph - N/A   Unknown
5:52 PM 35.1 °F 30.1 °F 28.9 °F 78% 30.14 in - NNW 5.8 mph - N/A   Unknown
6:52 PM 35.1 °F - 28.9 °F 78% 30.14 in - Calm Calm - N/A   Unknown
7:52 PM 35.1 °F - 30.0 °F 82% 30.12 in - Calm Calm - N/A   Unknown
8:52 PM 34.0 °F - 30.9 °F 89% 30.11 in - Calm Calm - N/A   Unknown
9:52 PM 34.0 °F - 30.9 °F 89% 30.10 in - Calm Calm - N/A   Unknown
10:52 PM 35.1 °F - 32.0 °F 89% 30.10 in - Calm Calm - N/A   Unknown
11:52 PM 35.1 °F - 32.0 °F 89% 30.08 in - Calm Calm - N/A   Unknown